User: anonymous   Login
Location: *
(49.9853°N, 3.5569°E)
Time: 17:11:44
(UTC+00:00)
Language:

Cosmos 1825 Rocket - Orbit

View from above orbital plane
View from above orbital plane
View from above satellite
View from above satellite

Ground track
Ground track

The orbit data is extracted from the following two-line orbital elements,

1 17567U 87024B   19321.38785878  .00000076  00000-0  63101-5 0  9996
2 17567  82.5286  92.3515 0018062 315.7763  44.2008 14.83746898767425
Epoch (UTC): 17 November 2019 09:18:30
Eccentricity: 0.0018062
inclination: 82.5286°
perigee height: 605 km
apogee height: 630 km
right ascension of ascending node: 92.3515°
argument of perigee: 315.7763°
revolutions per day: 14.83746898
mean anomaly at epoch: 44.2008°
orbit number at epoch: 76742

The dashed part of the orbit path shows where the satellite is in the earth's shadow,  

DLR